DW1389 Weather Reports


Display with metric or nautical units.
time (UTC)temp
F
wind
direction
speed
MPH
gust
MPH
rain 1hr
in
rain 24hr
in
rain mn
in
humidity
%
barometer
mb
20260906163402 86 81 1.0 3.0 0.00 0.00 0.00 71 1014.6
20260906163130 86 197 1.0 3.0 0.00 0.00 0.00 71 1014.6
20260906162402 86 309 1.0 3.0 0.00 0.00 0.00 72 1014.6
20260906161901 85 107 1.0 3.0 0.00 0.00 0.00 72 1014.6
20260906161628 85 210 2.0 4.0 0.00 0.00 0.00 72 1014.6
20260906160902 85 244 2.0 4.0 0.00 0.00 0.00 74 1014.5
20260906160402 86 170 1.0 4.0 0.00 0.00 0.00 73 1014.5
20260906155902 86 181 1.0 2.0 0.00 0.00 0.00 72 1014.5
20260906155402 85 81 1.0 2.0 0.00 0.00 0.00 73 1014.4
20260906154902 85 167 1.0 2.0 0.00 0.00 0.00 74 1014.3
20260906154401 85 122 1.0 2.0 0.00 0.00 0.00 74 1014.3
20260906153905 85 182 1.0 2.0 0.00 0.00 0.00 75 1014.2
20260906153633 84 295 1.0 3.0 0.00 0.00 0.00 76 1014.1
20260906153132 84 224 1.0 3.0 0.00 0.00 0.00 77 1014.1
20260906152402 84 197 1.0 2.0 0.00 0.00 0.00 77 1014.0
20260906151902 83 186 2.0 3.0 0.00 0.00 0.00 77 1014.0
20260906151401 83 116 2.0 3.0 0.00 0.00 0.00 79 1014.0
20260906150902 83 82 2.0 4.0 0.00 0.00 0.00 80 1014.0
20260906150402 82 83 2.0 4.0 0.00 0.00 0.00 82 1014.0
20260906145904 82 49 1.0 2.0 0.00 0.00 0.00 82 1014.0
20260906145401 82 131 1.0 3.0 0.00 0.00 0.00 83 1013.9
20260906145126 81 162 1.0 3.0 0.00 0.00 0.00 83 1013.9
20260906144401 81 0 1.0 2.0 0.00 0.00 0.00 83 1013.9
20260906143903 81 0 1.0 3.0 0.00 0.00 0.00 84 1013.8
20260906143401 81 121 1.0 3.0 0.00 0.00 0.00 84 1013.9
20260906142902 81 125 1.0 3.0 0.00 0.00 0.00 84 1013.9
20260906142401 80 185 1.0 3.0 0.00 0.00 0.00 84 1013.9
20260906142122 80 263 1.0 2.0 0.00 0.00 0.00 84 1013.9
20260906141401 80 147 1.0 4.0 0.00 0.00 0.00 84 1013.9
20260906140901 80 274 1.0 4.0 0.00 0.00 0.00 84 1013.9
20260906140401 80 139 1.0 4.0 0.00 0.00 0.00 84 1013.8
20260906135903 80 11 1.0 2.0 0.00 0.00 0.00 84 1013.7
20260906135401 80 327 1.0 2.0 0.00 0.00 0.00 84 1013.7
20260906134901 80 284 1.0 2.0 0.00 0.00 0.00 85 1013.7
20260906134400 80 208 1.0 2.0 0.00 0.00 0.00 85 1013.7
20260906133901 80 312 1.0 4.0 0.00 0.00 0.00 85 1013.6
20260906133401 80 49 1.0 4.0 0.00 0.00 0.00 85 1013.7
20260906132902 80 77 1.0 3.0 0.00 0.00 0.00 85 1013.6
20260906132400 80 38 1.0 4.0 0.00 0.00 0.00 84 1013.6
20260906131859 80 128 1.0 4.0 0.00 0.00 0.00 84 1013.5
20260906131359 80 152 1.0 2.0 0.00 0.00 0.00 84 1013.3
20260906130859 80 129 1.0 3.0 0.00 0.00 0.00 83 1013.2
20260906130358 80 94 2.0 3.0 0.00 0.00 0.00 83 1013.2
20260906125900 80 224 1.0 3.0 0.00 0.00 0.00 83 1013.2
20260906125630 80 108 1.0 2.0 0.00 0.00 0.00 84 1013.2
20260906124859 79 316 0.0 1.0 0.00 0.00 0.00 84 1013.0
20260906124359 78 106 0.0 2.0 0.00 0.00 0.00 85 1012.9
20260906124349 78 94 0.0 2.0 0.00 0.00 0.00 86 1012.8
20260906123359 78 0 0.0 1.0 0.00 0.00 0.00 87 1012.7
20260906122845 78 157 0.0 1.0 0.00 0.00 0.00 87 1012.6
20260906122344 78 0 0.0 1.0 0.00 0.00 0.00 86 1012.5
20260906121844 78 0 0.0 1.0 0.00 0.00 0.00 86 1012.4
20260906121558 78 0 0.0 1.0 0.00 0.00 0.00 86 1012.3
20260906120831 78 56 0.0 1.0 0.00 0.00 0.00 86 1012.2
20260906120827 78 2 0.0 1.0 0.00 0.00 0.00 85 1012.2
20260906115814 78 90 0.0 1.0 0.00 0.00 0.00 85 1012.1
20260906115313 78 0 0.0 0.0 0.00 0.00 0.00 85 1012.1
20260906114813 78 0 0.0 1.0 0.00 0.00 0.00 84 1012.0
20260906114316 78 44 0.0 1.0 0.00 0.00 0.00 84 1012.0
20260906113816 79 0 0.0 0.0 0.00 0.00 0.00 83 1012.0
20260906113313 79 0 0.0 0.0 0.00 0.00 0.00 83 1011.9
20260906112813 79 0 0.0 0.0 0.00 0.00 0.00 82 1011.9
20260906112314 80 0 0.0 0.0 0.00 0.00 0.00 81 1011.8
20260906111813 80 0 0.0 1.0 0.00 0.00 0.00 80 1011.6
20260906111314 80 224 0.0 1.0 0.00 0.00 0.00 80 1011.6
20260906110814 80 204 1.0 1.0 0.00 0.00 0.00 80 1011.7
20260906110536 80 229 1.0 2.0 0.00 0.00 0.00 80 1011.7
20260906110036 80 171 1.0 2.0 0.00 0.00 0.00 79 1011.7
20260906105314 80 234 1.0 2.0 0.00 0.00 0.00 79 1011.8
20260906104816 81 206 1.0 2.0 0.00 0.00 0.00 79 1011.7
20260906104538 81 232 2.0 2.0 0.00 0.00 0.00 79 1011.6
20260906103814 81 151 2.0 2.0 0.00 0.00 0.00 79 1011.6
20260906103315 81 227 2.0 3.0 0.00 0.00 0.00 78 1011.5
20260906102814 81 183 2.0 3.0 0.00 0.00 0.00 78 1011.5
20260906102315 81 230 2.0 3.0 0.00 0.00 0.00 78 1011.5
20260906102041 81 193 2.0 3.0 0.00 0.00 0.00 77 1011.6
20260906101530 81 228 2.0 3.0 0.00 0.00 0.00 78 1011.5
20260906100801 81 197 2.0 4.0 0.00 0.00 0.00 77 1011.5
20260906100530 81 235 2.0 4.0 0.00 0.00 0.00 77 1011.5
20260906095801 81 248 2.0 2.0 0.00 0.00 0.00 77 1011.5
20260906095305 81 224 2.0 3.0 0.00 0.00 0.00 77 1011.5
20260906094801 81 236 2.0 3.0 0.00 0.00 0.00 77 1011.5
20260906094304 81 300 2.0 4.0 0.00 0.00 0.00 77 1011.5
20260906093802 81 185 2.0 4.0 0.00 0.00 0.00 77 1011.4
20260906093302 81 271 2.0 3.0 0.00 0.00 0.00 77 1011.4
20260906092802 81 227 2.0 3.0 0.00 0.00 0.00 77 1011.3
20260906092301 81 73 1.0 3.0 0.00 0.00 0.00 78 1011.3
20260906091802 81 205 1.0 3.0 0.00 0.00 0.00 78 1011.3
20260906091302 81 208 1.0 2.0 0.00 0.00 0.00 78 1011.3
20260906090801 81 231 1.0 2.0 0.00 0.00 0.00 78 1011.3
20260906090302 81 210 1.0 2.0 0.00 0.00 0.00 78 1011.3
20260906090027 81 193 1.0 2.0 0.00 0.00 0.00 77 1011.3
20260906085306 81 177 1.0 2.0 0.00 0.00 0.00 77 1011.4
20260906084801 81 200 2.0 2.0 0.00 0.00 0.00 77 1011.4
20260906084302 82 199 1.0 2.0 0.00 0.00 0.00 77 1011.4
20260906083802 82 235 1.0 3.0 0.00 0.00 0.00 77 1011.4
20260906083305 82 268 1.0 3.0 0.00 0.00 0.00 77 1011.4
20260906082802 82 161 2.0 3.0 0.00 0.00 0.00 76 1011.4
20260906082305 82 194 1.0 2.0 0.00 0.00 0.00 76 1011.4
20260906081802 82 280 1.0 3.0 0.00 0.00 0.00 76 1011.4
20260906081302 82 202 2.0 3.0 0.00 0.00 0.00 76 1011.4
20260906080802 82 215 2.0 3.0 0.00 0.00 0.00 76 1011.4
20260906080527 82 175 2.0 3.0 0.00 0.00 0.00 75 1011.5
20260906075802 83 145 2.0 5.0 0.00 0.00 0.00 75 1011.6
20260906075528 83 239 2.0 5.0 0.00 0.00 0.00 75 1011.6
20260906074801 83 228 2.0 5.0 0.00 0.00 0.00 75 1011.6
20260906074301 83 235 2.0 3.0 0.00 0.00 0.00 75 1011.7
20260906074036 83 233 2.0 3.0 0.00 0.00 0.00 74 1011.8
20260906073302 83 217 2.0 5.0 0.00 0.00 0.00 74 1011.8
20260906072801 83 221 2.0 5.0 0.00 0.00 0.00 74 1011.9
20260906072305 83 201 1.0 4.0 0.00 0.00 0.00 74 1011.9
20260906072027 83 154 1.0 4.0 0.00 0.00 0.00 74 1012.0
20260906071301 83 227 2.0 4.0 0.00 0.00 0.00 74 1012.1
20260906070803 83 44 2.0 4.0 0.00 0.00 0.00 74 1012.0
20260906070302 83 222 2.0 4.0 0.00 0.00 0.00 74 1012.1
20260906065802 83 233 2.0 4.0 0.00 0.00 0.00 75 1012.1
20260906065305 83 118 1.0 3.0 0.00 0.00 0.00 75 1012.2
20260906064801 83 229 1.0 3.0 0.00 0.00 0.00 75 1012.2
20260906064531 83 181 2.0 3.0 0.00 0.00 0.00 75 1012.3
20260906063803 83 268 2.0 3.0 0.00 0.00 0.00 75 1012.3
20260906063302 83 188 1.0 3.0 0.00 0.00 0.00 75 1012.4
20260906062802 83 152 1.0 3.0 0.00 0.00 0.00 75 1012.4
20260906062305 83 217 2.0 3.0 0.00 0.00 0.00 75 1012.4
20260906061802 83 252 2.0 3.0 0.00 0.00 0.00 75 1012.5
20260906061302 83 209 1.0 3.0 0.00 0.00 0.00 75 1012.5
20260906061033 83 128 1.0 2.0 0.00 0.00 0.00 75 1012.5
20260906060302 83 119 1.0 2.0 0.00 0.00 0.00 75 1012.5
20260906060030 83 226 1.0 2.0 0.00 0.00 0.00 76 1012.6
20260906055306 83 162 1.0 2.0 0.00 0.00 0.00 76 1012.6
20260906055257 83 317 1.0 3.0 0.00 0.00 0.00 76 1012.6
20260906054302 83 0 1.0 3.0 0.00 0.00 0.00 76 1012.5
20260906053803 83 114 1.0 3.0 0.00 0.00 0.00 76 1012.4
20260906053303 83 190 1.0 3.0 0.00 0.00 0.00 75 1012.3
20260906052802 83 136 1.0 3.0 0.00 0.00 0.00 75 1012.3
20260906052306 83 203 1.0 2.0 0.00 0.00 0.00 75 1012.4
20260906051802 83 76 1.0 2.0 0.00 0.00 0.00 75 1012.4
20260906051301 83 284 2.0 4.0 0.00 0.00 0.00 75 1012.4
20260906050802 83 202 1.0 4.0 0.00 0.00 0.00 75 1012.5
20260906050533 83 120 2.0 4.0 0.00 0.00 0.00 75 1012.6
20260906050509 83 113 1.0 4.0 0.00 0.00 0.00 75 1012.6
20260906045305 83 118 2.0 4.0 0.00 0.00 0.00 75 1012.5
20260906044802 83 331 2.0 4.0 0.00 0.00 0.00 74 1012.6
20260906044532 83 240 2.0 4.0 0.00 0.00 0.00 74 1012.6
20260906043803 83 112 2.0 4.0 0.00 0.00 0.00 74 1012.6
20260906043302 83 167 2.0 4.0 0.00 0.00 0.00 74 1012.6
20260906042802 83 187 2.0 4.0 0.00 0.00 0.00 73 1012.6
20260906042754 83 110 2.0 4.0 0.00 0.00 0.00 73 1012.5
20260906041801 83 107 2.0 3.0 0.00 0.00 0.00 73 1012.5
20260906041302 83 160 2.0 3.0 0.00 0.00 0.00 72 1012.4
20260906041032 83 1 2.0 5.0 0.00 0.00 0.00 72 1012.5
20260906040302 83 87 2.0 6.0 0.00 0.00 0.00 72 1012.4
20260906035802 84 79 2.0 6.0 0.00 0.00 0.00 71 1012.4
20260906035305 84 137 2.0 5.0 0.00 0.00 0.00 71 1012.4
20260906034802 84 18 2.0 5.0 0.00 0.00 0.00 70 1012.4
20260906034301 84 267 2.0 5.0 0.00 0.00 0.00 69 1012.4
20260906033803 84 126 2.0 5.0 0.00 0.00 0.00 69 1012.4
20260906033543 84 80 2.0 5.0 0.00 0.00 0.00 68 1012.4
20260906032751 84 48 3.0 7.0 0.00 0.00 0.00 68 1012.4
20260906032536 85 86 3.0 9.0 0.00 0.00 0.00 67 1012.4
20260906031752 85 81 3.0 9.0 0.00 0.00 0.00 67 1012.3
20260906031246 85 38 3.0 9.0 0.00 0.00 0.00 66 1012.2
20260906030746 85 235 4.0 9.0 0.00 0.00 0.00 65 1012.1
20260906030246 86 68 4.0 9.0 0.00 0.00 0.00 64 1012.1
20260906025746 86 5 4.0 10.0 0.00 0.00 0.00 63 1012.1
20260906025245 86 28 4.0 10.0 0.00 0.00 0.00 63 1012.0
20260906024745 87 26 3.0 7.0 0.00 0.00 0.00 62 1011.9
20260906024246 87 51 3.0 7.0 0.00 0.00 0.00 62 1011.7
20260906023746 87 33 3.0 7.0 0.00 0.00 0.00 61 1011.5
20260906023246 87 0 3.0 7.0 0.00 0.00 0.00 61 1011.4
20260906022746 88 114 4.0 8.0 0.00 0.00 0.00 60 1011.3
20260906022246 88 52 4.0 8.0 0.00 0.00 0.00 59 1011.2
20260906022031 88 49 3.0 7.0 0.00 0.00 0.00 58 1011.1
20260906021246 88 92 3.0 6.0 0.00 0.00 0.00 58 1011.0
20260906020741 88 57 3.0 6.0 0.00 0.00 0.00 57 1010.9
20260906020524 89 9 4.0 6.0 0.00 0.00 0.00 56 1010.8
20260906020024 89 81 3.0 6.0 0.00 0.00 0.00 56 1010.7
20260906015234 89 359 3.0 7.0 0.00 0.00 0.00 55 1010.3
20260906014734 89 91 3.0 7.0 0.00 0.00 0.00 55 1010.4
20260906014229 89 233 3.0 7.0 0.00 0.00 0.00 54 1010.5
20260906014014 89 108 3.0 6.0 0.00 0.00 0.00 54 1010.4
20260906013259 90 54 3.0 9.0 0.00 0.00 0.00 54 1010.3
20260906013249 90 92 3.0 6.0 0.00 0.00 0.00 54 1010.4
20260906012259 91 80 3.0 9.0 0.00 0.00 0.00 53 1010.3
20260906012249 90 352 3.0 9.0 0.00 0.00 0.00 53 1010.4
20260906011229 91 347 4.0 9.0 0.00 0.00 0.00 53 1010.2
20260906010728 91 71 4.0 12.0 0.00 0.00 0.00 52 1010.2
20260906010228 92 26 4.0 12.0 0.00 0.00 0.00 52 1010.2
20260906005729 92 316 4.0 9.0 0.00 0.00 0.00 52 1010.3
20260906005228 92 17 4.0 9.0 0.00 0.00 0.00 51 1010.2
20260906004729 92 336 4.0 8.0 0.00 0.00 0.00 50 1010.2
20260906004229 93 358 4.0 11.0 0.00 0.00 0.00 50 1010.1
20260906003729 93 67 4.0 11.0 0.00 0.00 0.00 49 1010.1
20260906003229 94 48 3.0 9.0 0.00 0.00 0.00 49 1010.1
20260906002729 94 335 3.0 9.0 0.00 0.00 0.00 48 1010.0
20260906002228 94 4 3.0 8.0 0.00 0.00 0.00 47 1010.0
20260906001728 95 66 3.0 8.0 0.00 0.00 0.00 46 1010.0
20260906001230 95 11 3.0 8.0 0.00 0.00 0.00 46 1009.9
20260906000730 95 110 3.0 8.0 0.00 0.00 0.00 45 1010.0
20260906000515 95 31 3.0 8.0 0.00 0.00 0.00 45 1009.9
20260906000016 95 83 3.0 7.0 0.00 0.00 0.00 45 1009.8
20260905235514 96 76 3.0 8.0 0.00 0.00 0.00 45 1009.8
20260905234728 96 52 3.0 8.0 0.00 0.00 0.00 44 1009.7
20260905234226 96 346 4.0 9.0 0.00 0.00 0.00 43 1009.7
20260905233726 96 103 4.0 9.0 0.00 0.00 0.00 42 1009.6
20260905233225 96 103 4.0 9.0 0.00 0.00 0.00 42 1009.6
20260905233006 96 93 4.0 10.0 0.00 0.00 0.00 43 1009.6
20260905232224 96 64 4.0 10.0 0.00 0.00 0.00 43 1009.6
20260905231723 97 55 3.0 9.0 0.00 0.00 0.00 43 1009.6
20260905231504 97 343 2.0 7.0 0.00 0.00 0.00 42 1009.5
20260905230721 98 76 2.0 6.0 0.00 0.00 0.00 40 1009.5
20260905230222 98 358 2.0 6.0 0.00 0.00 0.00 38 1009.5
20260905225723 97 59 2.0 8.0 0.00 0.00 0.00 39 1009.6
20260905225222 98 4 2.0 8.0 0.00 0.00 0.00 39 1009.6
20260905224722 98 84 2.0 6.0 0.00 0.06 0.00 39 1009.6
20260905224221 98 93 2.0 6.0 0.00 0.07 0.00 39 1009.6
20260905223722 98 195 2.0 6.0 0.00 0.19 0.00 39 1009.6
20260905223222 98 351 2.0 7.0 0.00 0.21 0.00 39 1009.6
20260905223005 97 80 3.0 7.0 0.00 0.21 0.00 40 1009.7
20260905222222 98 26 2.0 5.0 0.00 0.21 0.00 40 1009.7
20260905221723 98 14 2.0 5.0 0.00 0.21 0.00 40 1009.7
20260905221502 98 39 2.0 8.0 0.00 0.21 0.00 40 1009.7
20260905221006 98 276 2.0 8.0 0.00 0.21 0.00 40 1009.7
20260905220220 99 68 2.0 8.0 0.00 0.21 0.00 40 1009.8
20260905215715 100 142 2.0 6.0 0.00 0.21 0.00 39 1009.8
20260905215539 101 127 1.0 5.0 0.00 0.21 0.00 38 1009.7
20260905215244 101 0 2.0 5.0 0.00 0.21 0.00 39 1009.8
20260905214217 100 287 1.0 5.0 0.00 0.21 0.00 39 1009.7
20260905213717 100 56 2.0 6.0 0.00 0.21 0.00 38 1009.7
20260905213217 99 247 2.0 6.0 0.00 0.21 0.00 40 1009.8
20260905212716 99 229 1.0 3.0 0.00 0.21 0.00 39 1009.9
20260905212217 99 21 2.0 5.0 0.00 0.21 0.00 39 1009.9
20260905211716 99 185 2.0 5.0 0.00 0.21 0.00 39 1010.0
20260905211216 99 108 2.0 5.0 0.00 0.21 0.00 39 1010.1
20260905210716 98 103 2.0 5.0 0.00 0.21 0.00 40 1010.1
20260905210216 98 38 2.0 7.0 0.00 0.21 0.00 40 1010.2
20260905205717 98 128 2.0 7.0 0.00 0.21 0.00 41 1010.3
20260905205454 99 9 2.0 6.0 0.00 0.21 0.00 41 1010.4
20260905204711 100 17 2.0 6.0 0.00 0.21 0.00 40 1010.4
20260905204212 100 19 1.0 7.0 0.00 0.21 0.00 40 1010.5
20260905203954 99 228 1.0 7.0 0.00 0.21 0.00 40 1010.7
20260905203211 98 237 1.0 4.0 0.00 0.21 0.00 42 1010.8
20260905202707 98 97 1.0 7.0 0.00 0.21 0.00 41 1010.9
20260905202207 98 115 2.0 7.0 0.00 0.21 0.00 42 1010.9
20260905201707 98 56 2.0 7.0 0.00 0.21 0.00 43 1011.0
20260905201209 98 0 2.0 7.0 0.00 0.21 0.00 42 1011.0
20260905200708 98 186 2.0 6.0 0.00 0.21 0.00 42 1011.1
20260905200456 98 108 2.0 6.0 0.00 0.21 0.00 42 1011.2
20260905195710 98 195 2.0 6.0 0.00 0.21 0.00 41 1011.3
20260905195208 97 38 2.0 6.0 0.00 0.21 0.00 42 1011.4
20260905194952 97 224 2.0 5.0 0.00 0.21 0.00 44 1011.5
20260905194206 96 317 1.0 5.0 0.00 0.21 0.00 43 1011.6
20260905194025 96 354 2.0 5.0 0.00 0.21 0.00 43 1011.8
20260905193728 96 320 2.0 5.0 0.00 0.21 0.00 42 1011.6
20260905192943 97 76 2.0 6.0 0.00 0.21 0.00 43 1011.9
20260905192203 96 71 2.0 6.0 0.00 0.21 0.00 42 1011.9
20260905191945 96 286 2.0 6.0 0.00 0.21 0.00 45 1012.0
20260905191202 95 152 2.0 5.0 0.00 0.21 0.00 46 1012.1
20260905190701 95 324 2.0 8.0 0.00 0.21 0.00 45 1012.2
20260905190201 96 359 2.0 8.0 0.00 0.21 0.00 45 1012.2
20260905185701 96 149 2.0 8.0 0.00 0.21 0.00 45 1012.3
20260905185201 96 270 2.0 4.0 0.00 0.21 0.00 47 1012.4
20260905184700 96 112 1.0 4.0 0.00 0.21 0.00 47 1012.5
20260905184201 96 221 2.0 5.0 0.00 0.21 0.00 47 1012.6
20260905183946 94 114 2.0 5.0 0.00 0.21 0.00 50 1012.7
20260905183201 93 260 2.0 5.0 0.00 0.21 0.00 50 1012.8
20260905182701 94 190 2.0 5.0 0.00 0.21 0.00 50 1012.8
20260905182201 94 197 2.0 4.0 0.00 0.21 0.00 49 1012.9
20260905181946 95 184 2.0 6.0 0.00 0.21 0.00 49 1013.0
20260905181202 95 179 2.0 6.0 0.00 0.21 0.00 48 1013.1
20260905180702 94 294 2.0 4.0 0.00 0.21 0.00 48 1013.2
20260905180202 93 221 2.0 4.0 0.00 0.21 0.00 50 1013.3
20260905175702 94 65 2.0 8.0 0.00 0.21 0.00 49 1013.4
20260905175201 94 263 2.0 8.0 0.00 0.21 0.00 51 1013.5
20260905174702 94 207 1.0 6.0 0.00 0.21 0.00 48 1013.5
20260905174202 94 350 1.0 6.0 0.00 0.21 0.00 53 1013.7
20260905173700 93 263 2.0 6.0 0.00 0.21 0.00 53 1013.8
20260905173202 93 220 2.0 6.0 0.00 0.21 0.00 55 1013.8
20260905172702 93 252 2.0 5.0 0.00 0.21 0.00 53 1013.8
20260905172202 93 85 2.0 5.0 0.00 0.21 0.00 53 1013.9
20260905171701 93 88 2.0 4.0 0.00 0.21 0.00 52 1013.9
20260905171202 92 103 2.0 7.0 0.00 0.21 0.00 54 1013.9
20260905170701 92 80 2.0 7.0 0.00 0.21 0.00 56 1014.0
20260905170449 92 59 2.0 7.0 0.00 0.21 0.00 56 1014.0
20260905165944 92 211 2.0 6.0 0.00 0.21 0.00 55 1014.1
20260905165202 91 100 2.0 7.0 0.00 0.21 0.00 58 1014.2
20260905164702 90 147 2.0 7.0 0.00 0.21 0.00 61 1014.2
20260905164203 90 255 2.0 8.0 0.00 0.21 0.00 61 1014.3